• în România
  • Lista ţărilor
  • Pe 7 zile
  • Temperatura apei
  • Hartă satelitară
  • Meteo pe hartă
  • Widget-uri
  • user-avatar
    Intrare

    Meteo pe oră la Malye Shady

    Astăzi, 20 August, Luni

    Timp Temperatura Precipitaţii Vânt Presiune Umiditate
    00:00 +10°C° 0 mm 1 m/s 752 mmHg 89%
    01:00 +10°C° 0 mm 1 m/s 752 mmHg 90%
    02:00 +9°C° 0 mm 1 m/s 752 mmHg 90%
    03:00 +9°C° 0 mm 1 m/s 752 mmHg 91%
    04:00 +9°C° 0 mm 1 m/s 752 mmHg 91%
    05:00 +10°C° 0 mm 1 m/s 752 mmHg 89%
    06:00 +11°C° 0 mm 1 m/s 752 mmHg 86%
    07:00 +12°C° 0 mm 1 m/s 752 mmHg 84%
    08:00 +13°C° 0 mm 1 m/s 752 mmHg 78%
    09:00 +15°C° 0 mm 1 m/s 751 mmHg 71%
    10:00 +18°C° 0 mm 1 m/s 751 mmHg 65%
    11:00 +19°C° 0 mm 1 m/s 751 mmHg 62%
    12:00 +19°C° 0 mm 2 m/s 751 mmHg 58%
    13:00 +19°C° 0 mm 2 m/s 750 mmHg 54%
    14:00 +19°C° 0 mm 2 m/s 750 mmHg 55%
    15:00 +20°C° 0 mm 2 m/s 750 mmHg 55%
    16:00 +20°C° 0 mm 2 m/s 750 mmHg 56%
    17:00 +18°C° 0 mm 2 m/s 750 mmHg 61%
    18:00 +18°C° 0 mm 1 m/s 750 mmHg 67%
    19:00 +16°C° 0 mm 1 m/s 749 mmHg 73%
    20:00 +15°C° 0 mm 1 m/s 749 mmHg 75%
    21:00 +14°C° 0 mm 1 m/s 749 mmHg 76%
    22:00 +13°C° 0 mm 1 m/s 749 mmHg 78%
    23:00 +13°C° 0 mm 1 m/s 749 mmHg 80%

    Mâine, 21 August, Marţi

    Timp Temperatura Precipitaţii Vânt Presiune Umiditate
    00:00 +13°C° 0 mm 2 m/s 749 mmHg 82%
    01:00 +12°C° 0 mm 2 m/s 749 mmHg 84%
    02:00 +12°C° 0 mm 2 m/s 749 mmHg 86%
    03:00 +12°C° 0 mm 2 m/s 749 mmHg 87%
    04:00 +12°C° 0 mm 2 m/s 748 mmHg 89%
    05:00 +11°C° 0 mm 3 m/s 748 mmHg 88%
    06:00 +12°C° 0 mm 3 m/s 748 mmHg 86%
    07:00 +13°C° 0 mm 3 m/s 748 mmHg 85%
    08:00 +14°C° 0 mm 3 m/s 748 mmHg 84%
    09:00 +17°C° 0 mm 3 m/s 748 mmHg 82%
    10:00 +18°C° 0 mm 4 m/s 748 mmHg 80%
    11:00 +19°C° 0,1 mm 3 m/s 747 mmHg 79%
    12:00 +20°C° 0,1 mm 3 m/s 747 mmHg 79%
    13:00 +21°C° 0,1 mm 3 m/s 747 mmHg 78%
    14:00 +21°C° 0,4 mm 3 m/s 747 mmHg 78%
    15:00 +22°C° 0,4 mm 3 m/s 746 mmHg 78%
    16:00 +22°C° 0,4 mm 3 m/s 746 mmHg 78%
    17:00 +21°C° 0,5 mm 3 m/s 746 mmHg 82%
    18:00 +20°C° 0,5 mm 3 m/s 746 mmHg 85%
    19:00 +20°C° 0,5 mm 2 m/s 746 mmHg 89%
    20:00 +19°C° 0,3 mm 2 m/s 745 mmHg 91%
    21:00 +18°C° 0,3 mm 2 m/s 745 mmHg 92%
    22:00 +18°C° 0,3 mm 2 m/s 745 mmHg 93%
    23:00 +17°C° 0,5 mm 3 m/s 745 mmHg 94%

    Poimâine, 22 August, Miercuri

    Timp Temperatura Precipitaţii Vânt Presiune Umiditate
    00:00 +17°C° 0,5 mm 3 m/s 745 mmHg 94%
    01:00 +17°C° 0,5 mm 3 m/s 745 mmHg 94%
    02:00 +16°C° 0,1 mm 3 m/s 745 mmHg 94%
    03:00 +16°C° 0,1 mm 3 m/s 744 mmHg 94%
    04:00 +16°C° 0,1 mm 3 m/s 744 mmHg 93%
    05:00 +16°C° 0 mm 3 m/s 744 mmHg 91%
    06:00 +15°C° 0 mm 4 m/s 744 mmHg 89%
    07:00 +17°C° 0 mm 4 m/s 744 mmHg 88%
    08:00 +18°C° 0 mm 4 m/s 744 mmHg 82%
    09:00 +20°C° 0 mm 5 m/s 743 mmHg 76%
    10:00 +21°C° 0 mm 5 m/s 743 mmHg 70%
    11:00 +22°C° 0 mm 6 m/s 743 mmHg 65%
    12:00 +24°C° 0 mm 6 m/s 743 mmHg 61%
    13:00 +26°C° 0 mm 6 m/s 743 mmHg 56%
    14:00 +24°C° 0,2 mm 6 m/s 743 mmHg 61%
    15:00 +23°C° 0,2 mm 6 m/s 743 mmHg 67%
    16:00 +22°C° 0,2 mm 6 m/s 743 mmHg 72%
    17:00 +20°C° 0,2 mm 5 m/s 743 mmHg 77%
    18:00 +17°C° 0,2 mm 5 m/s 743 mmHg 83%
    19:00 +17°C° 0,2 mm 4 m/s 743 mmHg 89%
    20:00 +15°C° 0,1 mm 4 m/s 743 mmHg 90%
    21:00 +14°C° 0,1 mm 3 m/s 743 mmHg 91%
    22:00 +14°C° 0,1 mm 2 m/s 744 mmHg 93%
    23:00 +13°C° 0 mm 2 m/s 744 mmHg 93%

    23 August, Joi

    Timp Temperatura Precipitaţii Vânt Presiune Umiditate
    00:00 +12°C° 0 mm 2 m/s 744 mmHg 94%
    01:00 +10°C° 0 mm 2 m/s 744 mmHg 94%
    02:00 +10°C° 0 mm 2 m/s 744 mmHg 95%
    03:00 +10°C° 0 mm 2 m/s 744 mmHg 96%
    04:00 +10°C° 0 mm 2 m/s 744 mmHg 96%
    05:00 +10°C° 0 mm 3 m/s 745 mmHg 95%
    06:00 +10°C° 0 mm 3 m/s 745 mmHg 94%
    07:00 +11°C° 0 mm 4 m/s 745 mmHg 93%
    08:00 +12°C° 0 mm 4 m/s 745 mmHg 87%
    09:00 +13°C° 0 mm 5 m/s 746 mmHg 82%
    10:00 +14°C° 0 mm 5 m/s 746 mmHg 76%
    11:00 +14°C° 0,1 mm 5 m/s 746 mmHg 74%
    12:00 +14°C° 0,1 mm 6 m/s 746 mmHg 72%
    13:00 +14°C° 0,1 mm 6 m/s 746 mmHg 70%
    14:00 +13°C° 0 mm 6 m/s 747 mmHg 69%
    15:00 +13°C° 0 mm 6 m/s 747 mmHg 69%
    16:00 +12°C° 0 mm 5 m/s 747 mmHg 69%
    17:00 +12°C° 0 mm 5 m/s 748 mmHg 72%
    18:00 +11°C° 0 mm 4 m/s 748 mmHg 74%
    19:00 +11°C° 0 mm 3 m/s 748 mmHg 76%
    20:00 +10°C° 0 mm 3 m/s 748 mmHg 78%
    21:00 +9°C° 0 mm 3 m/s 748 mmHg 81%
    22:00 +8°C° 0 mm 3 m/s 748 mmHg 83%
    23:00 +8°C° 0 mm 3 m/s 748 mmHg 83%

    24 August, Vineri

    Timp Temperatura Precipitaţii Vânt Presiune Umiditate
    00:00 +8°C° 0 mm 3 m/s 748 mmHg 82%
    01:00 +8°C° 0 mm 4 m/s 748 mmHg 82%
    02:00 +8°C° 0 mm 4 m/s 748 mmHg 82%
    03:00 +7°C° 0 mm 4 m/s 748 mmHg 83%
    04:00 +7°C° 0 mm 4 m/s 748 mmHg 83%
    05:00 +8°C° 0 mm 5 m/s 748 mmHg 82%
    06:00 +8°C° 0 mm 5 m/s 748 mmHg 81%
    07:00 +9°C° 0 mm 5 m/s 748 mmHg 80%
    08:00 +10°C° 0 mm 5 m/s 748 mmHg 77%
    09:00 +11°C° 0 mm 6 m/s 748 mmHg 75%
    10:00 +13°C° 0 mm 6 m/s 748 mmHg 72%
    11:00 +14°C° 0,1 mm 6 m/s 748 mmHg 72%
    12:00 +14°C° 0,1 mm 6 m/s 747 mmHg 72%
    13:00 +14°C° 0,1 mm 6 m/s 747 mmHg 73%
    14:00 +14°C° 0,3 mm 5 m/s 747 mmHg 74%
    15:00 +14°C° 0,3 mm 5 m/s 747 mmHg 76%
    16:00 +14°C° 0,3 mm 5 m/s 747 mmHg 77%
    17:00 +13°C° 0,2 mm 4 m/s 747 mmHg 80%
    18:00 +13°C° 0,2 mm 3 m/s 747 mmHg 83%
    19:00 +12°C° 0,2 mm 3 m/s 748 mmHg 86%
    20:00 +11°C° 0 mm 3 m/s 748 mmHg 88%
    21:00 +10°C° 0 mm 2 m/s 748 mmHg 91%
    22:00 +9°C° 0 mm 2 m/s 748 mmHg 93%
    23:00 +9°C° 0 mm 2 m/s 748 mmHg 93%

    25 August, Sâmbătă

    Timp Temperatura Precipitaţii Vânt Presiune Umiditate
    00:00 +8°C° 0 mm 2 m/s 748 mmHg 94%
    01:00 +8°C° 0 mm 2 m/s 749 mmHg 94%
    02:00 +8°C° 0,2 mm 3 m/s 749 mmHg 94%
    03:00 +9°C° 0,2 mm 3 m/s 749 mmHg 94%
    04:00 +9°C° 0,2 mm 3 m/s 749 mmHg 94%
    05:00 +9°C° 0,1 mm 3 m/s 749 mmHg 93%
    06:00 +8°C° 0,1 mm 4 m/s 749 mmHg 93%
    07:00 +10°C° 0,1 mm 4 m/s 749 mmHg 92%
    08:00 +10°C° 0 mm 4 m/s 749 mmHg 91%
    09:00 +11°C° 0 mm 4 m/s 750 mmHg 89%
    10:00 +12°C° 0 mm 4 m/s 750 mmHg 88%
    11:00 +13°C° 0 mm 4 m/s 750 mmHg 85%
    12:00 +14°C° 0 mm 4 m/s 750 mmHg 83%
    13:00 +15°C° 0 mm 4 m/s 750 mmHg 81%
    14:00 +15°C° 0 mm 4 m/s 750 mmHg 80%
    15:00 +15°C° 0 mm 4 m/s 750 mmHg 80%
    16:00 +17°C° 0 mm 4 m/s 750 mmHg 80%
    17:00 +16°C° 0 mm 3 m/s 750 mmHg 82%
    18:00 +16°C° 0 mm 3 m/s 750 mmHg 85%
    19:00 +14°C° 0 mm 3 m/s 750 mmHg 88%
    20:00 +15°C° 0 mm 2 m/s 750 mmHg 89%
    21:00 +14°C° 0 mm 2 m/s 750 mmHg 90%
    22:00 +14°C° 0 mm 2 m/s 750 mmHg 92%
    23:00 +13°C° 0 mm 2 m/s 750 mmHg 93%
    Arată mai mult